Deering, AK

2:40 AM AKDT on August 24, 2016 (GMT -0800)
Deering (New)

Weather History for PADE - February, 2013

Change the Weather History Date:

Wednesday, February 6, 2013

  Actual Average (PAOT) Record (PAOT)
Temperature  
Mean Temperature -12 °F -2 °F  
Max Temperature -4 °F - 35 °F (1982)
Min Temperature -24 °F -9 °F -49 °F (1991)
Degree Days  
Heating Degree Days 77 67  
Month to date heating degree days 403  
Since 1 July heating degree days 8802  
Cooling Degree Days 0    
Month to date cooling degree days  
Year to date cooling degree days  
Moisture  
Dew Point -16 °F    
Average Humidity 77    
Maximum Humidity 84    
Minimum Humidity 71    
Precipitation  
Precipitation 0.00 in 0.02 in 0.28 in (1982)
Month to date precipitation 0.13  
Year to date precipitation 0.75  
Snow  
Snow 0.00 in 0.30 in 1.20 in (2016)
Month to date snowfall 1.9  
Since 1 July snowfall 39.9  
Snow Depth -    
Sea Level Pressure  
Sea Level Pressure 29.85 in    
Wind  
Wind Speed 15 mph (WSW)    
Max Wind Speed 18 mph    
Max Gust Speed -    
Visibility 9 miles    
Events      
T = Trace of Precipitation, MM = Missing Value Source: NWS Daily Summary

Daily Weather History Graph

Daily Weather History Graph

Search for Another Location

Airport or City:

Trip Planner

Search our weather history database for the weather conditions in past years. The results will help you decide how hot, cold, wet, or windy it might be!

Date:

Astronomy

Feb. 06, 2013 Rise Set
Actual Time 10:27 AM AKST 5:43 PM AKST
Civil Twilight 9:27 AM AKST 6:43 PM AKST
Nautical Twilight 8:25 AM AKST 7:46 PM AKST
Astronomical Twilight 7:26 AM AKST 8:45 PM AKST
Moon 8:30 AM AKST (2/6) 1:09 PM AKST (2/6)
Length of Visible Light 9h 15m
Length of Day
7h 16m
Waning Crescent, 15% of the Moon is Illuminated
Feb 6
Waning Crescent
Feb 9
New
Feb 17
First Quarter
Feb 25
Full
Mar 4
Last Quarter

Hourly Weather History & Observations

Time (AKST) Temp. Windchill Dew Point Humidity Pressure Visibility Wind Dir Wind Speed Gust Speed Precip Events Conditions
12:53 AM -4.0 °F -26.4 °F -9.0 °F 79% 29.81 in 10.0 mi West 18.4 mph - N/A   Overcast
1:53 AM -4.0 °F -23.7 °F -9.9 °F 76% 29.82 in 10.0 mi West 13.8 mph - N/A   Overcast
3:53 AM -5.1 °F -27.2 °F -11.0 °F 76% 29.82 in 10.0 mi West 17.3 mph - N/A   Overcast
4:53 AM -6.0 °F -29.0 °F -11.0 °F 79% 29.82 in 10.0 mi West 18.4 mph - N/A   Overcast
5:53 AM -7.1 °F -30.4 °F -11.9 °F 79% 29.82 in 10.0 mi West 18.4 mph - N/A   Overcast
6:53 AM -7.1 °F -29.8 °F -13.0 °F 75% 29.83 in 10.0 mi West 17.3 mph - N/A   Overcast
7:53 AM -7.1 °F -29.1 °F -11.9 °F 79% 29.83 in 10.0 mi West 16.1 mph - N/A   Overcast
8:53 AM -7.1 °F -27.6 °F -11.9 °F 79% 29.84 in 10.0 mi West 13.8 mph - N/A   Overcast
9:53 AM -8.0 °F -31.0 °F -13.0 °F 79% 29.84 in 10.0 mi West 17.3 mph - N/A   Overcast
10:53 AM -8.0 °F -31.0 °F -14.1 °F 75% 29.85 in 10.0 mi West 17.3 mph - N/A   Overcast
11:53 AM -9.0 °F -31.7 °F -14.1 °F 79% 29.86 in 10.0 mi West 16.1 mph - N/A   Overcast
12:53 PM -9.0 °F -32.4 °F -15.0 °F 75% 29.87 in 10.0 mi West 17.3 mph - N/A   Mostly Cloudy
1:53 PM -9.0 °F -27.4 °F -15.0 °F 75% 29.88 in 10.0 mi West 10.4 mph - N/A   Overcast
2:53 PM -9.0 °F -29.3 °F -16.1 °F 71% 29.88 in 10.0 mi West 12.7 mph - N/A   Mostly Cloudy
4:53 PM -9.9 °F -30.5 °F -16.1 °F 74% 29.86 in 10.0 mi West 12.7 mph - N/A   Overcast
5:53 PM -11.0 °F -33.5 °F -17.0 °F 75% 29.86 in 10.0 mi West 15.0 mph - N/A   Mostly Cloudy
6:53 PM -11.9 °F -33.8 °F -17.0 °F 78% 29.87 in 10.0 mi West 13.8 mph - N/A   Mostly Cloudy
7:53 PM -14.1 °F -37.4 °F -18.9 °F 79% 29.87 in 9.0 mi West 15.0 mph - N/A   Mostly Cloudy
8:53 PM -18.0 °F - -23.1 °F 78% 29.87 in 10.0 mi Calm Calm - N/A   Clear
9:08 PM -14.8 °F -24.8 °F -20.2 °F 77% 29.86 in 4.0 mi WSW 3.5 mph - N/A   Haze
9:17 PM -16.6 °F -29.3 °F -20.2 °F 84% 29.86 in 3.0 mi SSW 4.6 mph - N/A   Haze
9:53 PM -17.0 °F -31.7 °F -22.0 °F 78% 29.86 in 3.0 mi SSW 5.8 mph - N/A   Haze
10:53 PM -17.0 °F -36.1 °F -23.1 °F 74% 29.84 in 3.0 mi SW 9.2 mph - N/A   Haze
11:38 PM -20.2 °F -38.8 °F -23.8 °F 83% 29.83 in 10.0 mi SSW 8.1 mph - N/A   Scattered Clouds
11:53 PM -24.0 °F -37.9 °F -29.0 °F 77% 29.83 in 10.0 mi South 4.6 mph - N/A   Clear